TimeMDT,TemperatureF,Dew PointF,Humidity,Sea Level PressureIn,VisibilityMPH,Wind Direction,Wind SpeedMPH,Gust SpeedMPH,PrecipitationIn,Events,Conditions,WindDirDegrees,DateUTC
12:56 AM,28.9,28.0,96,30.15,-9999.0,Calm,Calm,-,N/A,,Unknown,0,2013-05-21 06:56:00
1:56 AM,28.9,27.0,92,30.15,-9999.0,Calm,Calm,-,N/A,,Unknown,0,2013-05-21 07:56:00
2:56 AM,28.0,27.0,96,30.14,-9999.0,Calm,Calm,-,N/A,,Unknown,0,2013-05-21 08:56:00
3:56 AM,28.0,26.1,92,30.13,-9999.0,Calm,Calm,-,N/A,,Unknown,0,2013-05-21 09:56:00
4:56 AM,27.0,25.0,92,30.13,-9999.0,Calm,Calm,-,N/A,,Unknown,0,2013-05-21 10:56:00
5:56 AM,28.0,26.1,92,30.14,-9999.0,Calm,Calm,-,N/A,,Unknown,0,2013-05-21 11:56:00
6:56 AM,30.0,28.9,96,30.13,-9999.0,Calm,Calm,-,N/A,,Unknown,0,2013-05-21 12:56:00
7:56 AM,30.9,30.9,100,30.14,-9999.0,Calm,Calm,-,N/A,,Unknown,0,2013-05-21 13:56:00
8:56 AM,34.0,32.0,92,30.11,-9999.0,ESE,3.5,-,N/A,,Unknown,110,2013-05-21 14:56:00
9:56 AM,39.9,33.1,77,30.10,-9999.0,Variable,3.5,-,N/A,,Unknown,0,2013-05-21 15:56:00
10:56 AM,43.0,33.1,68,30.07,-9999.0,Calm,Calm,-,N/A,,Unknown,0,2013-05-21 16:56:00
11:56 AM,46.9,30.9,54,30.06,-9999.0,ESE,4.6,-,N/A,,Unknown,110,2013-05-21 17:56:00
12:56 PM,46.9,28.9,50,30.05,-9999.0,ESE,4.6,-,N/A,,Unknown,110,2013-05-21 18:56:00
1:56 PM,48.0,30.0,50,30.01,-9999.0,Calm,Calm,-,N/A,,Unknown,0,2013-05-21 19:56:00
2:56 PM,52.0,30.9,45,29.98,-9999.0,ENE,4.6,-,N/A,,Unknown,70,2013-05-21 20:56:00
3:56 PM,50.0,32.0,50,29.97,-9999.0,Calm,Calm,-,N/A,,Unknown,0,2013-05-21 21:56:00
4:56 PM,51.1,35.1,54,29.94,-9999.0,Calm,Calm,-,N/A,,Unknown,0,2013-05-21 22:56:00
5:56 PM,52.0,32.0,47,29.92,-9999.0,Calm,Calm,-,N/A,,Unknown,0,2013-05-21 23:56:00
6:56 PM,50.0,30.0,46,29.90,-9999.0,Calm,Calm,-,N/A,,Unknown,0,2013-05-22 00:56:00
7:56 PM,46.9,36.0,66,29.91,-9999.0,Calm,Calm,-,N/A,,Unknown,0,2013-05-22 01:56:00
8:56 PM,42.1,37.0,82,29.91,-9999.0,Calm,Calm,-,N/A,,Unknown,0,2013-05-22 02:56:00
9:56 PM,41.0,35.1,79,29.88,-9999.0,Calm,Calm,-,N/A,,Unknown,0,2013-05-22 03:56:00
10:56 PM,39.0,35.1,86,29.88,-9999.0,Calm,Calm,-,N/A,,Unknown,0,2013-05-22 04:56:00
11:56 PM,36.0,32.0,86,29.87,-9999.0,Calm,Calm,-,N/A,,Unknown,0,2013-05-22 05:56:00